Storm Lake, IA

7:58 AM CDT on July 26, 2016 (GMT -0500)
Storm Lake Municipal

Weather History for KSLB - October, 2013

Change the Weather History Date:

Thursday, October 17, 2013

  Actual Average Record
Temperature  
Mean Temperature 45 °F -  
Max Temperature 57 °F 61 °F 75 °F (2005)
Min Temperature 33 °F 40 °F 33 °F (2001)
Degree Days  
Heating Degree Days 20    
Moisture  
Dew Point 35 °F    
Average Humidity 75    
Maximum Humidity 93    
Minimum Humidity 38    
Precipitation  
Precipitation 0.00 in - - ()
Sea Level Pressure  
Sea Level Pressure 29.88 in    
Wind  
Wind Speed 9 mph (WSW)    
Max Wind Speed 22 mph    
Max Gust Speed 29 mph    
Visibility 10 miles    
Events Rain    
Averages and records for this station are not official NWS values.
T = Trace of Precipitation, MM = Missing Value Source: NWS Daily Summary

Daily Weather History Graph

Daily Weather History Graph

Search for Another Location

Airport or City:

Trip Planner

Search our weather history database for the weather conditions in past years. The results will help you decide how hot, cold, wet, or windy it might be!

Date:

Astronomy

Oct. 17, 2013 Rise Set
Actual Time 7:36 AM CDT 6:35 PM CDT
Civil Twilight 7:08 AM CDT 7:03 PM CDT
Nautical Twilight 6:35 AM CDT 7:36 PM CDT
Astronomical Twilight 6:02 AM CDT 8:08 PM CDT
Moon 5:50 PM CDT (10/17) 6:08 AM CDT (10/17)
Length of Visible Light 11h 55m
Length of Day
10h 58m
Waxing Gibbous, 98% of the Moon is Illuminated
Oct 17
Waxing Gibbous
Oct 18
Full
Oct 26
Last Quarter
Nov 3
New
Nov 9
First Quarter

Hourly Weather History & Observations

Time (CDT) Temp. Windchill Dew Point Humidity Pressure Visibility Wind Dir Wind Speed Gust Speed Precip Events Conditions
12:15 AM 39.2 °F 34.2 °F 32.0 °F 75% 29.92 in 10.0 mi SW 6.9 mph - N/A   Clear
12:35 AM 41.0 °F 36.4 °F 32.0 °F 70% 29.92 in 10.0 mi SSW 6.9 mph - N/A   Clear
12:55 AM 37.4 °F 32.1 °F 32.0 °F 81% 29.92 in 10.0 mi SW 6.9 mph - N/A   Clear
1:15 AM 37.4 °F 32.8 °F 32.0 °F 81% 29.92 in 10.0 mi SW 5.8 mph - N/A   Clear
1:35 AM 37.4 °F 32.1 °F 32.0 °F 81% 29.91 in 10.0 mi SW 6.9 mph - N/A   Clear
1:55 AM 37.4 °F 32.1 °F 32.0 °F 81% 29.91 in 10.0 mi SW 6.9 mph - N/A   Clear
2:15 AM 37.4 °F 32.1 °F 32.0 °F 81% 29.91 in 10.0 mi SW 6.9 mph - N/A   Clear
2:35 AM 37.4 °F 32.8 °F 32.0 °F 81% 29.90 in 10.0 mi SW 5.8 mph - N/A   Clear
2:55 AM 35.6 °F 30.7 °F 32.0 °F 87% 29.90 in 10.0 mi SW 5.8 mph - N/A   Clear
3:15 AM 35.6 °F 30.7 °F 32.0 °F 87% 29.89 in 10.0 mi SW 5.8 mph - N/A   Clear
3:35 AM 35.6 °F 30.7 °F 32.0 °F 87% 29.88 in 10.0 mi WSW 5.8 mph - N/A   Clear
3:55 AM 37.4 °F 32.8 °F 32.0 °F 81% 29.87 in 10.0 mi SW 5.8 mph - N/A   Clear
4:15 AM 37.4 °F 32.8 °F 32.0 °F 81% 29.86 in 10.0 mi SW 5.8 mph - N/A   Clear
4:35 AM 37.4 °F 33.8 °F 32.0 °F 81% 29.86 in 10.0 mi SW 4.6 mph - N/A   Clear
4:55 AM 35.6 °F 31.7 °F 32.0 °F 87% 29.86 in 10.0 mi SW 4.6 mph - N/A   Clear
5:15 AM 35.6 °F 31.7 °F 30.2 °F 81% 29.85 in 10.0 mi SSW 4.6 mph - N/A   Clear
5:35 AM 37.4 °F 32.1 °F 32.0 °F 81% 29.85 in 10.0 mi SW 6.9 mph - N/A   Clear
5:55 AM 35.6 °F 29.9 °F 32.0 °F 87% 29.85 in 10.0 mi SSW 6.9 mph - N/A   Clear
6:15 AM 35.6 °F 29.9 °F 32.0 °F 87% 29.85 in 10.0 mi SSW 6.9 mph - N/A   Clear
6:35 AM 35.6 °F 29.9 °F 30.2 °F 81% 29.84 in 10.0 mi SSW 6.9 mph - N/A   Clear
6:55 AM 33.8 °F 27.7 °F 30.2 °F 87% 29.84 in 10.0 mi SSW 6.9 mph - N/A   Clear
7:15 AM 33.8 °F 27.7 °F 30.2 °F 87% 29.84 in 10.0 mi SSW 6.9 mph - N/A   Clear
7:35 AM 35.6 °F 29.2 °F 30.2 °F 81% 29.84 in 10.0 mi SW 8.1 mph - N/A   Clear
7:55 AM 33.8 °F 27.0 °F 30.2 °F 87% 29.84 in 10.0 mi SW 8.1 mph - N/A   Clear
8:15 AM 35.6 °F 29.2 °F 30.2 °F 81% 29.84 in 10.0 mi SW 8.1 mph - N/A   Clear
8:35 AM 35.6 °F 28.6 °F 30.2 °F 81% 29.85 in 10.0 mi SW 9.2 mph - N/A   Clear
8:55 AM 37.4 °F 32.1 °F 32.0 °F 81% 29.85 in 10.0 mi SW 6.9 mph - N/A   Scattered Clouds
9:15 AM 37.4 °F 32.1 °F 33.8 °F 87% 29.85 in 10.0 mi SW 6.9 mph - N/A   Partly Cloudy
9:35 AM 41.0 °F 35.8 °F 35.6 °F 81% 29.85 in 10.0 mi SW 8.1 mph - N/A   Clear
9:55 AM 42.8 °F 38.0 °F 35.6 °F 76% 29.85 in 10.0 mi SW 8.1 mph - N/A   Clear
10:15 AM 44.6 °F 40.2 °F 35.6 °F 71% 29.86 in 10.0 mi SW 8.1 mph - N/A   Clear
10:35 AM 44.6 °F 39.7 °F 35.6 °F 71% 29.86 in 10.0 mi SW 9.2 mph - N/A   Clear
10:55 AM 48.2 °F - 37.4 °F 66% 29.85 in 10.0 mi Variable 5.8 mph - N/A   Clear
11:15 AM 50.0 °F - 37.4 °F 62% 29.85 in 10.0 mi SW 5.8 mph - N/A   Clear
11:35 AM 51.8 °F - 35.6 °F 54% 29.85 in 10.0 mi WSW 6.9 mph - N/A   Clear
11:55 AM 53.6 °F - 35.6 °F 51% 29.85 in 10.0 mi Variable 6.9 mph - N/A   Clear
12:15 PM 55.4 °F - 35.6 °F 47% 29.84 in 10.0 mi WSW 8.1 mph - N/A   Clear
12:35 PM 55.4 °F - 35.6 °F 47% 29.84 in 10.0 mi West 9.2 mph 15.0 mph N/A   Clear
12:55 PM 55.4 °F - 35.6 °F 47% 29.84 in 10.0 mi WSW 9.2 mph - N/A   Clear
1:15 PM 57.2 °F - 32.0 °F 38% 29.83 in 10.0 mi WNW 9.2 mph - N/A   Clear
1:35 PM 57.2 °F - 32.0 °F 38% 29.82 in 10.0 mi West 10.4 mph 16.1 mph N/A   Clear
1:55 PM 57.2 °F - 33.8 °F 41% 29.83 in 10.0 mi West 15.0 mph - N/A   Clear
2:15 PM 57.2 °F - 37.4 °F 48% 29.82 in 10.0 mi West 13.8 mph 19.6 mph N/A   Clear
2:35 PM 55.4 °F - 37.4 °F 51% 29.83 in 10.0 mi WNW 15.0 mph 23.0 mph N/A   Clear
2:55 PM 57.2 °F - 37.4 °F 48% 29.83 in 10.0 mi WNW 16.1 mph - N/A   Clear
3:15 PM 55.4 °F - 39.2 °F 54% 29.83 in 10.0 mi WNW 18.4 mph 27.6 mph N/A   Clear
3:35 PM 55.4 °F - 39.2 °F 54% 29.82 in 10.0 mi West 18.4 mph - N/A   Partly Cloudy
3:55 PM 57.2 °F - 39.2 °F 51% 29.83 in 10.0 mi WNW 17.3 mph 24.2 mph N/A   Partly Cloudy
4:15 PM 55.4 °F - 41.0 °F 58% 29.83 in 10.0 mi WNW 21.9 mph - N/A   Partly Cloudy
4:35 PM 53.6 °F - 41.0 °F 62% 29.84 in 10.0 mi WNW 20.7 mph 28.8 mph N/A Rain Light Rain
4:55 PM 51.8 °F - 41.0 °F 67% 29.84 in 10.0 mi West 20.7 mph 27.6 mph N/A   Light Drizzle
5:15 PM 50.0 °F - 42.8 °F 76% 29.85 in 10.0 mi West 17.3 mph 25.3 mph N/A Rain Light Rain
5:35 PM 50.0 °F - 42.8 °F 76% 29.86 in 10.0 mi WNW 18.4 mph 25.3 mph N/A Rain Light Rain
5:55 PM 48.2 °F - 42.8 °F 82% 29.87 in 10.0 mi WNW 17.3 mph 24.2 mph N/A Rain Light Rain
6:15 PM 48.2 °F - 42.8 °F 82% 29.87 in 10.0 mi WNW 17.3 mph 24.2 mph N/A   Overcast
6:35 PM 46.4 °F 40.4 °F 42.8 °F 87% 29.88 in 10.0 mi WNW 13.8 mph 25.3 mph N/A Rain Light Rain
6:55 PM 46.4 °F 39.0 °F 42.8 °F 87% 29.89 in 10.0 mi WNW 19.6 mph - N/A   Overcast
7:15 PM 44.6 °F 37.8 °F 41.0 °F 87% 29.90 in 10.0 mi NW 15.0 mph 23.0 mph N/A   Overcast
7:35 PM 42.8 °F 34.3 °F 41.0 °F 93% 29.92 in 5.0 mi NW 19.6 mph 27.6 mph N/A   Light Drizzle
7:55 PM 41.0 °F 32.5 °F 39.2 °F 93% 29.93 in 4.0 mi NW 17.3 mph 27.6 mph N/A   Light Drizzle
8:15 PM 41.0 °F 33.1 °F 39.2 °F 93% 29.94 in 6.0 mi NNW 15.0 mph 21.9 mph N/A   Light Drizzle
8:35 PM 41.0 °F 33.1 °F 37.4 °F 87% 29.94 in 10.0 mi NW 15.0 mph 21.9 mph N/A   Overcast
8:55 PM 41.0 °F 33.5 °F 37.4 °F 87% 29.95 in 10.0 mi NW 13.8 mph - N/A   Overcast
9:15 PM 41.0 °F 33.9 °F 37.4 °F 87% 29.96 in 10.0 mi NW 12.7 mph 19.6 mph N/A   Overcast
9:35 PM 41.0 °F 33.9 °F 37.4 °F 87% 29.96 in 10.0 mi NW 12.7 mph 19.6 mph N/A   Overcast
9:55 PM 41.0 °F 33.5 °F 37.4 °F 87% 29.96 in 10.0 mi NW 13.8 mph 19.6 mph N/A   Overcast
10:15 PM 41.0 °F 34.3 °F 37.4 °F 87% 29.97 in 10.0 mi NW 11.5 mph 17.3 mph N/A   Overcast
10:35 PM 41.0 °F 33.5 °F 37.4 °F 87% 29.97 in 10.0 mi WNW 13.8 mph - N/A   Overcast
10:55 PM 41.0 °F 33.9 °F 37.4 °F 87% 29.97 in 10.0 mi WNW 12.7 mph - N/A   Overcast
11:15 PM 41.0 °F 33.1 °F 37.4 °F 87% 29.98 in 10.0 mi NW 15.0 mph - N/A   Overcast
11:35 PM 41.0 °F 33.5 °F 37.4 °F 87% 29.98 in 10.0 mi NW 13.8 mph 19.6 mph N/A   Overcast
11:55 PM 39.2 °F 33.0 °F 35.6 °F 87% 29.98 in 10.0 mi WNW 9.2 mph 16.1 mph N/A   Mostly Cloudy